Temperature
13 13 12 10 10 10 9 9 8 9 8 6 4 5 4 2 -0 -2 -3 -4 -4 -5 -6 -6 -7 -8 -8 -8 -9 -9 -10 -10 -11 -12 -13 -13 -14 -14 -14 -14 -14 -14 -14 -13
11 12 10 9 9 9 9 9 9 8 7 5 5 4 3 0 -1 -3 -4 -4 -5 -5 -6 -6 -7 -8 -8 -8 -9 -9 -10 -11 -12 -13 -13 -13 -14 -14 -14 -14 -14 -14 -14 -13
10 12 11 10 11 9 9 9 9 8 6 5 4 3 1 -1 -2 -3 -4 -4 -5 -6 -6 -7 -7 -8 -8 -8 -9 -10 -11 -12 -12 -13 -13 -13 -14 -13 -13 -13 -14 -14 -14 -13
8 9 9 11 8 10 9 9 9 7 6 5 4 2 -0 -2 -3 -4 -4 -4 -5 -6 -6 -7 -7 -8 -8 -8 -9 -10 -11 -12 -12 -13 -13 -13 -13 -13 -13 -13 -13 -13 -13 -13
7 8 10 9 7 8 7 7 8 6 6 4 3 2 -3 -3 -3 -4 -4 -5 -5 -6 -6 -7 -7 -8 -8 -8 -10 -11 -11 -12 -12 -13 -13 -13 -13 -13 -13 -13 -13 -13 -13 -13
7 6 8 10 7 8 7 6 6 6 4 3 2 -1 -2 -3 -3 -3 -4 -5 -5 -6 -6 -7 -7 -7 -8 -9 -10 -11 -11 -12 -12 -13 -13 -13 -13 -13 -13 -13 -13 -13 -13 -13
6 6 8 7 6 6 5 6 5 4 3 2 1 -1 -2 -3 -3 -4 -4 -5 -5 -6 -6 -7 -7 -8 -9 -9 -10 -11 -11 -12 -12 -13 -13 -13 -13 -13 -13 -13 -13 -13 -13 -13
7 7 7 6 5 4 5 5 5 3 2 1 -0 -2 -3 -3 -3 -3 -4 -5 -5 -6 -6 -7 -7 -8 -9 -9 -10 -10 -11 -12 -12 -13 -13 -13 -13 -13 -13 -13 -13 -13 -13 -13
9 9 8 7 6 6 5 4 3 3 2 1 -1 -2 -3 -3 -3 -4 -4 -5 -5 -6 -6 -6 -7 -8 -9 -9 -9 -10 -11 -12 -12 -12 -13 -13 -13 -13 -13 -13 -13 -13 -13 -13
8 8 7 7 6 5 5 4 3 2 1 0 -1 -2 -3 -3 -3 -4 -4 -5 -5 -6 -6 -6 -7 -8 -9 -9 -9 -9 -11 -12 -12 -12 -13 -13 -13 -14 -13 -13 -13 -13 -13 -13
7 8 6 6 5 4 3 3 2 2 1 -0 -1 -2 -3 -3 -3 -4 -4 -5 -5 -6 -6 -7 -7 -8 -8 -9 -9 -9 -11 -12 -12 -13 -13 -13 -13 -14 -13 -13 -13 -13 -13 -13
8 9 6 5 4 3 3 3 2 2 0 -1 -2 -2 -3 -3 -3 -4 -4 -5 -5 -5 -6 -6 -7 -7 -8 -8 -8 -9 -11 -11 -12 -12 -13 -13 -13 -13 -14 -14 -13 -14 -14 -13
10 8 8 6 4 3 3 3 2 1 0 -1 -2 -2 -3 -3 -4 -4 -4 -5 -5 -5 -6 -6 -7 -7 -8 -8 -8 -9 -10 -11 -11 -12 -12 -13 -13 -14 -14 -14 -14 -14 -14 -14
8 7 5 4 3 2 2 2 1 0 -1 -1 -2 -2 -3 -3 -4 -4 -4 -5 -5 -5 -6 -6 -7 -7 -7 -8 -8 -9 -10 -11 -11 -11 -12 -12 -13 -13 -14 -14 -14 -14 -14 -14
6 6 6 4 3 2 2 2 1 0 -1 -2 -2 -2 -3 -3 -4 -4 -4 -5 -5 -5 -6 -6 -6 -7 -7 -7 -8 -8 -9 -10 -10 -10 -11 -12 -12 -12 -13 -14 -14 -14 -14 -14
4 4 4 4 3 2 2 1 1 0 -1 -1 -2 -2 -3 -3 -4 -4 -4 -4 -5 -5 -5 -6 -6 -6 -7 -7 -8 -8 -9 -9 -9 -10 -10 -11 -11 -12 -12 -13 -13 -14 -14 -14
4 2 2 2 3 3 2 2 1 1 -0 -1 -2 -2 -3 -3 -4 -4 -4 -4 -5 -5 -5 -5 -6 -6 -7 -7 -7 -8 -8 -8 -9 -9 -10 -10 -11 -11 -11 -12 -12 -12 -13 -13
7 8 7 6 5 4 3 2 1 0 -1 -1 -2 -3 -3 -3 -4 -4 -4 -4 -5 -5 -5 -5 -6 -6 -6 -6 -7 -7 -8 -8 -8 -9 -9 -10 -10 -11 -11 -11 -11 -11 -12 -12
5 5 5 5 5 4 3 2 1 0 -1 -2 -2 -2 -3 -3 -4 -4 -4 -4 -4 -4 -5 -5 -5 -6 -6 -6 -6 -7 -7 -7 -8 -8 -9 -9 -10 -10 -10 -11 -11 -11 -11 -11
5 4 4 4 4 3 3 2 1 -0 -1 -2 -2 -3 -3 -3 -4 -4 -4 -4 -4 -4 -4 -5 -5 -5 -5 -6 -6 -6 -7 -7 -7 -7 -8 -9 -9 -10 -10 -11 -11 -11 -11 -11
4 4 4 4 3 3 2 1 1 0 -1 -1 -2 -2 -3 -3 -4 -4 -4 -4 -4 -4 -4 -4 -5 -5 -5 -6 -6 -6 -6 -6 -6 -7 -7 -8 -8 -9 -10 -11 -11 -11 -11 -11
5 4 4 3 3 2 2 1 0 -0 -1 -1 -2 -3 -3 -3 -4 -4 -4 -4 -4 -4 -4 -4 -5 -5 -5 -5 -6 -6 -6 -6 -6 -6 -7 -7 -8 -9 -9 -10 -11 -11 -11 -11
5 4 4 3 3 2 2 1 0 -0 -1 -1 -2 -2 -3 -3 -4 -4 -4 -4 -4 -4 -4 -4 -5 -5 -5 -5 -5 -6 -6 -6 -6 -6 -7 -7 -7 -8 -8 -9 -10 -11 -11 -12
5 4 3 3 2 2 2 1 0 -0 -1 -2 -2 -3 -3 -4 -4 -4 -4 -4 -4 -4 -4 -4 -5 -5 -5 -5 -5 -6 -6 -6 -6 -6 -7 -7 -7 -7 -7 -8 -9 -10 -11 -12
5 4 3 3 2 2 2 1 0 -1 -1 -2 -3 -3 -4 -4 -4 -4 -4 -4 -4 -4 -4 -5 -5 -5 -5 -5 -6 -6 -6 -6 -6 -7 -7 -7 -7 -7 -7 -8 -8 -9 -11 -11
4 4 3 3 3 2 2 1 0 -0 -1 -2 -2 -3 -3 -4 -4 -4 -4 -5 -5 -5 -5 -5 -5 -5 -5 -6 -6 -6 -6 -6 -7 -7 -7 -7 -7 -7 -7 -7 -8 -9 -10 -11
4 3 2 2 2 2 1 1 0 -0 -1 -1 -1 -2 -3 -4 -4 -4 -5 -5 -5 -5 -5 -5 -5 -5 -6 -6 -6 -6 -6 -6 -7 -7 -7 -7 -7 -7 -7 -7 -8 -9 -9 -10
Wind_Speed
8 5 4 6 7 6 8 7 6 6 6 4 6 6 8 9 8 8 8 9 9 9 9 10 11 11 11 12 13 13 14 14 14 14 15 15 15 15 14 14 16 13 14 15
6 3 3 7 9 9 8 7 8 8 3 7 6 7 8 9 8 7 7 8 9 9 10 11 11 11 12 11 12 12 13 13 14 14 15 15 15 15 15 14 13 13 14 15
5 2 6 8 5 10 5 6 5 3 3 5 5 6 6 8 7 6 7 8 8 9 9 10 10 10 12 12 13 13 13 13 12 12 13 14 15 14 13 12 11 12 13 14
5 7 6 3 4 1 6 4 4 2 5 6 5 7 9 8 7 6 6 7 7 8 9 9 8 9 10 11 13 13 12 11 11 12 12 12 12 12 11 10 10 9 11 13
2 5 9 3 3 3 4 4 5 5 6 6 6 4 5 6 6 6 5 5 6 7 8 9 9 10 11 13 13 11 11 12 12 12 12 12 12 11 10 10 10 9 10 12
3 3 6 3 6 4 3 5 6 7 7 6 4 1 2 3 5 5 5 5 6 7 7 8 9 10 11 13 12 12 13 13 13 12 12 12 12 11 10 10 10 12 12 12
5 7 9 4 7 6 4 5 8 8 7 6 4 4 6 6 5 5 5 6 7 8 8 8 10 10 11 11 12 12 13 13 12 12 12 11 10 9 10 11 11 12 12 11
5 6 10 8 8 8 5 7 8 8 7 7 8 9 7 6 4 4 5 6 7 8 9 9 10 10 10 11 11 12 13 13 12 12 12 12 10 9 9 10 10 10 10 11
8 9 3 8 7 5 9 9 8 7 9 8 8 8 7 5 4 4 5 6 6 7 9 9 10 9 10 11 12 13 13 13 12 12 10 9 9 9 8 8 8 9 10 10
6 6 7 8 8 8 8 9 10 9 9 8 8 9 7 4 3 3 4 5 6 7 9 10 10 9 9 10 11 12 13 12 12 11 10 9 9 8 8 8 8 8 9 10
7 2 7 8 8 8 10 12 12 10 8 8 9 8 6 5 4 3 3 5 6 7 8 9 9 9 9 9 10 11 11 10 11 11 10 9 10 9 11 8 11 8 6 7
8 7 8 8 12 12 13 12 12 11 9 8 8 8 7 5 3 1 3 5 6 7 8 9 9 9 9 8 10 11 11 10 9 8 9 9 8 9 17 18 19 18 16 13
4 6 6 10 13 11 11 11 10 10 10 10 8 7 7 4 2 2 4 5 5 7 8 8 8 9 9 8 11 11 10 9 8 10 9 9 10 9 9 13 18 18 17 17
10 9 8 7 9 12 11 11 10 10 9 9 8 8 6 5 3 2 3 4 6 7 6 7 8 9 9 9 11 11 9 11 11 7 7 7 7 7 7 9 9 8 11 16
9 6 8 9 13 13 13 13 13 10 9 8 8 7 7 5 3 3 4 5 5 5 5 7 8 9 9 10 11 10 9 7 6 6 6 6 6 6 6 7 7 7 6 9
9 10 12 15 16 15 14 14 12 12 10 9 8 8 6 5 3 5 5 2 3 5 6 7 7 9 11 10 11 9 7 14 13 7 6 7 6 6 6 6 6 6 6 6
15 13 13 16 17 16 15 12 13 13 11 10 10 9 7 5 4 5 1 3 3 6 6 5 7 9 11 9 8 7 6 9 15 10 6 7 6 6 6 6 6 7 6 10
15 14 16 20 19 17 14 11 12 12 11 10 10 9 8 7 5 3 2 4 5 6 3 3 7 9 9 9 7 6 6 6 7 7 7 7 8 6 6 6 7 8 7 10
11 12 13 14 15 15 14 13 12 11 11 12 11 10 8 6 4 2 2 3 4 5 4 6 11 8 7 10 12 4 6 7 7 7 7 12 11 8 8 8 8 8 9 9
11 12 13 13 13 12 13 12 12 12 11 11 10 9 8 6 5 4 3 4 5 3 5 7 6 5 7 10 12 5 6 7 7 8 9 9 10 10 10 10 10 10 9 9
13 13 14 14 13 12 13 14 15 14 12 12 11 10 9 7 6 5 4 3 3 3 5 7 4 5 8 9 10 5 6 6 7 8 9 10 10 11 11 12 12 12 11 11
13 14 15 15 15 13 12 11 12 13 13 11 10 9 8 7 6 5 6 5 3 4 3 2 3 8 10 10 5 5 6 6 6 7 8 9 10 11 12 12 12 13 13 12
13 13 15 15 15 13 12 11 12 13 13 13 13 12 9 8 6 5 4 5 3 4 3 2 5 8 9 6 4 5 6 6 6 7 8 9 9 10 11 12 12 13 13 13
13 14 13 12 12 13 13 11 10 9 10 10 10 10 9 6 5 5 3 4 5 4 3 3 5 6 7 4 4 5 5 6 6 6 8 8 9 9 10 11 12 12 13 14
14 13 14 16 15 12 11 11 10 8 9 7 8 8 6 5 5 5 5 4 6 5 3 4 4 4 4 3 3 4 5 5 6 6 7 8 9 10 10 11 12 12 13 13
12 13 13 13 11 11 12 12 11 10 10 10 9 8 8 6 5 4 4 5 6 6 4 3 3 3 3 3 4 4 4 6 7 6 6 7 8 9 10 11 13 12 13 15
10 10 9 9 8 10 11 12 12 12 12 12 11 9 9 8 7 7 7 6 5 5 4 4 4 4 3 3 4 5 6 7 7 8 8 9 10 11 12 15 15 17 18 20
Wind_Direction
289 270 220 252 262 248 222 231 251 286 2 69 82 55 53 65 52 30 16 9 2 351 344 342 341 338 340 335 332 332 329 326 324 324 323 322 324 324 324 325 327 324 325 322
286 195 230 258 240 239 248 244 255 287 337 101 73 55 56 68 47 24 11 3 353 346 342 339 334 335 334 328 329 327 319 317 318 321 324 326 326 328 327 326 324 324 323 320
288 282 275 276 239 194 201 203 221 245 122 89 51 40 66 78 53 27 14 357 346 341 337 329 329 331 326 327 324 317 312 312 316 320 325 327 330 328 325 323 323 322 320 320
298 330 275 247 16 87 178 199 191 143 98 94 72 67 89 78 58 33 13 350 339 333 324 320 325 325 326 323 316 312 313 319 324 325 325 325 324 324 324 322 322 318 321 324
307 293 277 192 173 147 167 248 170 157 127 98 63 90 85 60 61 47 17 352 334 327 323 326 330 333 328 318 314 318 329 334 330 327 328 329 330 331 331 328 325 325 327 327
196 249 261 240 137 104 102 242 138 131 125 105 68 346 154 96 66 43 15 352 341 334 331 332 333 327 318 317 326 337 338 334 330 330 330 332 336 336 335 335 337 337 335 333
220 237 266 147 136 130 167 230 143 131 125 120 135 148 129 107 78 44 15 357 354 341 336 332 321 315 316 325 337 336 335 331 331 332 332 337 339 338 339 343 343 341 341 342
204 230 257 150 151 190 193 126 129 122 121 122 121 116 113 103 85 47 14 2 356 342 330 323 316 317 325 334 333 336 335 334 335 335 341 350 344 343 343 346 347 346 348 353
205 220 160 160 175 147 131 136 126 124 128 130 129 126 121 115 90 51 23 2 349 335 325 323 318 325 334 332 339 339 337 337 337 338 344 348 347 347 347 348 351 357 359 359
271 245 178 168 126 137 135 127 123 128 130 132 132 132 136 132 97 53 16 352 341 335 327 319 320 333 332 335 342 338 337 339 341 343 347 349 352 352 352 351 355 5 0 358
250 197 133 168 155 143 120 119 121 125 127 133 133 140 144 134 102 51 357 341 333 321 311 314 326 333 336 345 343 338 337 340 344 347 346 349 354 356 358 355 7 12 356 357
230 198 177 187 162 141 139 142 142 136 132 133 139 143 141 128 113 46 322 313 314 316 319 321 328 331 338 346 344 339 342 346 347 348 350 351 350 354 3 6 10 14 14 17
143 115 122 137 142 138 144 145 144 142 142 140 138 136 134 138 158 240 285 305 318 316 313 321 332 332 339 342 342 339 337 342 348 349 349 353 357 357 355 358 7 9 9 10
121 109 114 135 146 143 137 136 130 126 131 133 133 133 141 151 177 247 297 305 301 304 317 336 332 331 334 338 340 336 333 343 351 336 340 344 349 352 352 352 351 352 357 360
161 145 149 141 134 132 136 137 138 142 141 140 142 146 155 164 190 254 279 281 304 320 339 333 327 328 330 338 340 333 333 334 338 334 334 336 338 341 342 343 342 338 335 346
154 129 139 146 148 149 153 155 158 162 160 156 157 165 168 168 208 256 263 311 342 323 316 315 322 323 332 336 335 331 331 342 350 341 331 331 331 331 332 330 329 327 328 324
151 159 164 167 165 169 171 170 168 167 164 166 169 162 160 181 229 240 254 7 315 288 286 312 315 315 328 330 326 324 322 329 341 338 325 323 323 323 320 319 319 321 318 323
180 177 173 172 170 170 169 162 160 162 165 165 154 157 172 193 207 201 296 309 302 294 281 325 302 311 325 325 325 323 320 319 321 320 324 327 331 324 319 315 315 316 313 317
170 162 162 162 164 164 163 161 158 156 153 155 162 173 185 185 172 193 254 281 286 291 297 307 321 333 319 327 342 323 323 322 324 325 328 337 339 327 323 320 318 314 311 311
161 155 151 149 149 153 156 152 148 153 160 162 163 165 173 181 182 202 235 250 243 248 283 290 310 312 317 327 343 328 326 326 329 333 337 338 337 335 332 330 327 321 317 310
155 150 148 151 152 153 157 156 158 163 165 166 169 174 178 179 181 193 219 248 219 222 280 313 334 308 317 335 344 332 328 331 334 338 341 340 338 337 336 336 336 336 331 324
157 154 154 155 155 158 159 158 159 158 160 166 168 166 167 177 189 206 226 226 238 279 291 299 301 315 335 348 339 327 331 337 338 339 341 339 337 337 337 337 338 340 339 336
161 160 161 163 162 156 150 155 158 163 169 173 174 177 181 187 187 193 218 205 207 258 275 256 299 325 343 352 332 330 333 337 337 337 337 336 335 335 334 335 337 338 338 338
164 162 159 151 140 146 159 165 160 165 169 171 176 177 176 179 194 208 202 192 211 245 246 258 299 327 345 345 327 329 329 327 325 330 334 334 333 334 333 334 336 336 336 336
160 155 151 152 159 169 166 153 149 154 160 170 175 181 184 181 182 180 173 191 220 236 245 257 281 317 334 319 318 322 322 319 326 337 335 334 333 333 332 333 334 335 336 337
160 165 168 172 169 164 162 164 172 176 179 183 187 188 190 190 186 172 176 198 216 228 226 236 255 282 295 305 311 315 315 321 330 331 326 330 328 329 330 330 328 334 336 336
148 154 158 162 164 163 166 173 178 183 186 187 186 185 184 184 184 189 193 200 205 210 213 220 226 239 261 283 297 307 313 316 323 326 328 329 327 326 327 327 329 334 338 338
Height
1587 1585 1587 1589 1589 1589 1591 1592 1595 1588 1590 1593 1596 1597 1597 1597 1597 1596 1595 1592 1589 1585 1581 1576 1570 1564 1559 1552 1546 1539 1532 1525 1518 1512 1506 1500 1494 1489 1484 1478 1473 1468 1462 1456
1589 1583 1588 1588 1586 1587 1588 1588 1588 1588 1591 1594 1594 1595 1596 1596 1596 1595 1594 1591 1588 1584 1579 1574 1568 1562 1556 1550 1543 1537 1529 1523 1516 1510 1504 1499 1493 1487 1482 1476 1471 1465 1459 1454
1596 1584 1585 1584 1576 1581 1583 1582 1584 1587 1592 1592 1593 1594 1595 1595 1595 1595 1593 1590 1587 1583 1578 1573 1568 1562 1555 1548 1542 1534 1527 1521 1515 1509 1503 1497 1492 1486 1480 1475 1469 1463 1458 1452
1602 1595 1595 1575 1577 1575 1578 1579 1581 1584 1588 1590 1593 1594 1594 1594 1594 1593 1591 1589 1585 1581 1577 1572 1567 1561 1555 1548 1540 1532 1526 1521 1515 1508 1502 1497 1491 1485 1479 1474 1468 1462 1457 1452
1607 1601 1587 1579 1578 1578 1580 1581 1580 1583 1586 1589 1591 1593 1594 1593 1593 1592 1590 1588 1585 1581 1576 1571 1565 1560 1553 1545 1538 1532 1526 1520 1513 1508 1502 1496 1490 1485 1479 1474 1468 1463 1457 1452
1605 1608 1596 1575 1578 1578 1581 1583 1580 1582 1585 1588 1589 1593 1594 1592 1591 1590 1589 1586 1583 1580 1575 1570 1565 1559 1551 1544 1538 1532 1525 1519 1514 1508 1502 1497 1491 1485 1480 1475 1469 1464 1458 1454
1604 1602 1585 1577 1577 1580 1586 1579 1579 1581 1584 1586 1588 1590 1591 1590 1589 1589 1587 1585 1582 1579 1574 1569 1564 1557 1551 1545 1539 1533 1526 1520 1514 1509 1503 1498 1492 1486 1481 1476 1470 1465 1460 1456
1596 1597 1585 1575 1576 1578 1576 1574 1576 1580 1582 1584 1586 1587 1588 1588 1588 1587 1586 1584 1581 1578 1573 1569 1563 1557 1552 1546 1540 1533 1526 1520 1514 1509 1504 1498 1493 1487 1482 1477 1471 1467 1463 1459
1579 1576 1566 1567 1568 1570 1571 1573 1575 1578 1580 1582 1583 1584 1586 1586 1587 1586 1585 1583 1580 1577 1573 1568 1563 1558 1552 1547 1540 1533 1526 1521 1515 1510 1505 1499 1493 1488 1483 1478 1474 1469 1465 1462
1570 1563 1563 1565 1566 1568 1570 1571 1574 1576 1578 1579 1581 1582 1584 1585 1585 1585 1584 1582 1579 1576 1572 1567 1563 1558 1553 1547 1541 1534 1527 1522 1516 1511 1505 1500 1495 1490 1485 1480 1476 1472 1469 1465
1566 1561 1562 1562 1563 1565 1567 1570 1572 1574 1576 1577 1579 1580 1582 1583 1584 1584 1583 1581 1578 1575 1571 1567 1563 1558 1554 1548 1542 1535 1529 1523 1518 1513 1507 1502 1497 1492 1488 1484 1480 1476 1472 1469
1557 1551 1554 1555 1558 1561 1564 1567 1570 1572 1574 1576 1577 1579 1580 1581 1582 1582 1581 1580 1577 1574 1571 1567 1563 1559 1554 1549 1543 1536 1530 1525 1520 1514 1509 1504 1499 1494 1490 1487 1483 1479 1476 1472
1547 1548 1549 1550 1555 1558 1561 1565 1568 1570 1572 1573 1575 1577 1579 1580 1581 1581 1580 1578 1576 1573 1570 1567 1563 1559 1555 1550 1544 1538 1532 1527 1522 1517 1511 1506 1501 1496 1491 1487 1484 1480 1477 1474
1543 1545 1547 1549 1551 1555 1559 1563 1566 1568 1570 1572 1573 1575 1577 1578 1579 1579 1578 1577 1575 1572 1569 1566 1563 1559 1555 1550 1545 1540 1535 1530 1525 1519 1514 1509 1504 1499 1494 1489 1485 1481 1478 1475
1539 1541 1543 1545 1549 1552 1556 1560 1563 1565 1567 1569 1571 1573 1575 1577 1578 1578 1577 1576 1574 1572 1569 1566 1563 1559 1555 1551 1546 1541 1536 1531 1527 1522 1517 1511 1506 1501 1496 1491 1487 1483 1479 1475
1535 1537 1540 1542 1544 1548 1552 1556 1559 1562 1564 1567 1569 1571 1573 1575 1576 1576 1576 1575 1573 1571 1569 1566 1562 1559 1555 1551 1547 1542 1538 1533 1528 1523 1518 1513 1508 1503 1498 1493 1488 1484 1480 1476
1528 1531 1534 1536 1539 1544 1548 1552 1556 1559 1561 1564 1566 1569 1571 1573 1574 1574 1574 1573 1572 1570 1568 1565 1562 1559 1555 1551 1547 1543 1538 1534 1529 1524 1519 1514 1510 1505 1500 1494 1489 1485 1480 1476
1522 1524 1527 1529 1534 1539 1545 1549 1552 1555 1558 1561 1564 1566 1568 1570 1571 1572 1572 1572 1571 1569 1567 1564 1562 1559 1555 1552 1547 1543 1539 1534 1530 1525 1520 1515 1511 1506 1501 1496 1491 1485 1480 1476
1517 1521 1525 1529 1533 1537 1541 1545 1549 1552 1555 1558 1560 1563 1566 1568 1569 1570 1570 1570 1569 1568 1566 1564 1562 1559 1555 1552 1548 1544 1539 1535 1530 1525 1520 1516 1511 1506 1501 1496 1491 1486 1481 1476
1513 1517 1521 1526 1531 1535 1539 1542 1546 1548 1551 1554 1557 1560 1563 1565 1566 1567 1568 1568 1567 1566 1565 1563 1561 1558 1555 1552 1548 1544 1540 1535 1530 1525 1520 1515 1510 1505 1501 1496 1491 1486 1481 1476
1508 1512 1517 1522 1527 1531 1535 1539 1541 1544 1547 1551 1554 1557 1560 1562 1564 1565 1565 1565 1565 1564 1563 1562 1560 1558 1555 1552 1549 1545 1541 1536 1531 1526 1521 1515 1510 1505 1501 1496 1491 1486 1481 1476
1503 1508 1513 1518 1523 1527 1531 1535 1538 1541 1544 1547 1550 1553 1556 1558 1560 1562 1562 1563 1563 1562 1562 1561 1559 1557 1554 1552 1549 1546 1542 1537 1533 1527 1522 1517 1511 1506 1500 1496 1491 1486 1481 1476
1499 1503 1509 1514 1519 1523 1527 1530 1533 1537 1540 1543 1546 1549 1552 1555 1557 1559 1560 1560 1560 1560 1560 1559 1558 1556 1554 1552 1549 1546 1542 1538 1534 1529 1524 1518 1513 1507 1501 1496 1491 1485 1480 1475
1494 1499 1504 1510 1515 1519 1522 1525 1529 1533 1536 1540 1543 1546 1548 1551 1553 1555 1556 1557 1558 1558 1557 1557 1556 1555 1553 1551 1549 1546 1543 1539 1535 1530 1525 1520 1514 1509 1502 1496 1490 1485 1479 1474
1489 1494 1499 1504 1509 1513 1517 1521 1524 1528 1531 1534 1538 1541 1544 1547 1549 1551 1553 1554 1555 1555 1555 1555 1554 1553 1552 1550 1548 1545 1542 1539 1535 1531 1526 1521 1515 1509 1503 1497 1490 1484 1478 1473
1484 1488 1493 1499 1504 1509 1512 1515 1518 1522 1525 1528 1531 1535 1538 1541 1544 1546 1548 1550 1551 1552 1552 1552 1552 1551 1550 1549 1547 1544 1541 1538 1535 1531 1526 1521 1516 1510 1504 1497 1491 1484 1478 1472
1480 1485 1490 1495 1499 1503 1507 1510 1513 1516 1519 1523 1526 1529 1533 1536 1539 1541 1543 1545 1547 1548 1548 1549 1549 1548 1548 1546 1545 1542 1540 1537 1534 1530 1525 1520 1515 1510 1504 1497 1491 1484 1478 1471